Content
SEND FEEDBACK

Daily
Averages
Monthly
Summary
United States of America

SOUTH LAKE TAHOE, CALIFORNIA


Home > North America > United States > California
Elevation: 6263 feet     Latitude: 38 53N     Longitude: 119 59W

WEATHER
 
SELECT A DAY
Number of Records: 177,929;   Date Range: 1/1/95 - 11/27/14
 
SHARE

PRINT THIS DATA

[ ← Previous Day ]
WEATHER ALMANAC - MARCH 26, 2013
[ Next Day → ]
[ °C ]   °F
Weather ElementAverageHighLow
Temperature44.1 °F50 °F (2:53 pm)39 °F (2:53 am)
Dewpoint26.7 °F34 °F (4:53 pm)16 °F (5:53 am)
Humidity51.7 %76 % (9:53 pm)36 % (5:53 am)
Barometer29.90 in29.98 in (10:00 am)29.83 in (1:53 am)
Wind Speed8.1 mph23 mph (1:53 am)
Wind Gust32.2 mph (1:53 am)
Weather ElementAverage
Visibility9.4 mi
Wind DirectionSE (138.5 °)

Weather ElementTotal
Precipitation---
Heating Degree Days20.5 (Base 65)
Averaged from 26 records on March 26, 2013
WEATHER CONDITIONS BREAKOUT
WIND DIRECTION BREAKOUT
WEATHER BY HOUR - MARCH 26, 2013
[ °C ]   °F
Local TimeTemperatureDewpointHumidityBarometerVisibilityWind DirectionWind SpeedGust SpeedPrecipitationEventsConditions
1:53 AM44.1 °F24.1 °F45 %29.83 in10.0 miSouth (190°)23.0 mph32.2 mphOvercast
2:46 AM39.2 °F26.6 °F61 %29.95 in10.0 miSSE (160°)12.7 mph26.5 mph0.00 inMostly Cloudy
2:53 AM39.0 °F25.0 °F57 %29.85 in10.0 miSE (140°)8.1 mph21.9 mph0.00 inMostly Cloudy
3:53 AM42.1 °F19.0 °F40 %29.84 in10.0 miVariable5.8 mphOvercast
4:53 AM42.1 °F17.1 °F37 %29.85 in10.0 miVariable4.6 mphOvercast
5:53 AM41.0 °F16.0 °F36 %29.86 in10.0 miSSW (200°)6.9 mphScattered Clouds
6:53 AM39.9 °F16.0 °F38 %29.88 in10.0 miVariable4.6 mph19.6 mphScattered Clouds
7:53 AM41.0 °F17.1 °F38 %29.89 in10.0 miSouth (190°)4.6 mphPartly Cloudy
8:53 AM44.1 °F19.0 °F37 %29.90 in10.0 miSouth (180°)5.8 mphOvercast
9:53 AM45.0 °F25.0 °F46 %29.89 in3.0 miSouth (190°)11.5 mphHaze
10:00 AM46.4 °F24.8 °F43 %29.98 in2.5 miSouth (190°)12.7 mphHaze
10:09 AM46.4 °F26.6 °F46 %29.98 in10.0 miSSW (210°)9.2 mph21.9 mphOvercast
10:53 AM46.9 °F28.0 °F48 %29.91 in10.0 miSouth (190°)13.8 mph21.9 mphScattered Clouds
11:53 AM46.9 °F33.1 °F59 %29.91 in10.0 miSSW (200°)12.7 mph23.0 mph0.00 inRainLight Rain
12:53 PM48.9 °F32.0 °F52 %29.89 in10.0 miSSW (210°)9.2 mph25.3 mph0.00 inRainLight Rain
1:53 PM48.9 °F28.9 °F46 %29.90 in10.0 miSSW (200°)16.1 mph24.2 mph0.00 inMostly Cloudy
2:53 PM50.0 °F30.0 °F46 %29.91 in10.0 miSSW (200°)11.5 mph23.0 mphScattered Clouds
3:53 PM48.9 °F28.9 °F46 %29.89 in10.0 miSSW (210°)8.1 mph0.00 inMostly Cloudy
4:53 PM46.0 °F34.0 °F63 %29.90 in10.0 miSSE (150°)8.1 mph19.6 mph0.00 inScattered Clouds
5:53 PM46.0 °F30.9 °F56 %29.90 in10.0 miSSW (200°)10.4 mphMostly Cloudy
6:53 PM46.0 °F30.9 °F56 %29.91 in10.0 miSouth (190°)6.9 mphOvercast
7:53 PM44.1 °F32.0 °F63 %29.92 in10.0 miSSW (200°)3.5 mphOvercast
8:53 PM43.0 °F30.9 °F62 %29.92 in10.0 miCalmOvercast
9:53 PM41.0 °F34.0 °F76 %29.94 in10.0 miCalm0.00 inOvercast
10:53 PM41.0 °F33.1 °F73 %29.93 in10.0 miCalmMostly Cloudy
11:53 PM39.9 °F32.0 °F73 %29.92 in10.0 miCalmMostly Cloudy
Hourly data recorded from KTVL, located miles away from South Lake Tahoe, California







STORIES FROM OUR PARTNERS